• In Hungary
  • List of Countries
  • For 7 days
  • Water Temperature
  • Satellite Maps
  • Weather Map
  • News
  • Weather Widgets
  • user-avatar
    Login

    Hourly Weather Kolyvan'

    Today, 23 October, Tuesday

    Time Temperature Precipitation Wind Pressure Humidity
    00:00 -3°C° 0 mm 4 mps 721 mmHg 75%
    01:00 -2°C° 0.1 mm 3 mps 721 mmHg 76%
    02:00 -2°C° 0.1 mm 3 mps 721 mmHg 76%
    03:00 -4°C° 0.1 mm 3 mps 721 mmHg 77%
    04:00 -4°C° 0.1 mm 3 mps 721 mmHg 80%
    05:00 -4°C° 0.1 mm 3 mps 721 mmHg 82%
    06:00 -4°C° 0 mm 4 mps 722 mmHg 81%
    07:00 -4°C° 0.2 mm 4 mps 722 mmHg 81%
    08:00 -4°C° 0.2 mm 4 mps 722 mmHg 81%
    09:00 -4°C° 0.2 mm 4 mps 723 mmHg 81%
    10:00 -4°C° 0.2 mm 4 mps 723 mmHg 78%
    11:00 -3°C° 0.2 mm 4 mps 723 mmHg 74%
    12:00 -3°C° 0 mm 4 mps 724 mmHg 72%
    13:00 -3°C° 0.1 mm 4 mps 724 mmHg 70%
    14:00 -3°C° 0.1 mm 4 mps 725 mmHg 68%
    15:00 -1°C° 0.1 mm 3 mps 725 mmHg 66%
    16:00 -2°C° 0 mm 3 mps 725 mmHg 70%
    17:00 -3°C° 0 mm 2 mps 726 mmHg 74%
    18:00 -4°C° 0 mm 2 mps 726 mmHg 78%
    19:00 -4°C° 0 mm 2 mps 726 mmHg 78%
    20:00 -4°C° 0 mm 2 mps 726 mmHg 79%
    21:00 -4°C° 0 mm 2 mps 727 mmHg 80%
    22:00 -4°C° 0 mm 2 mps 727 mmHg 79%
    23:00 -4°C° 0 mm 2 mps 727 mmHg 79%

    Tomorrow, 24 October, Wednesday

    Time Temperature Precipitation Wind Pressure Humidity
    00:00 -5°C° 0 mm 3 mps 727 mmHg 78%
    01:00 -5°C° 0 mm 3 mps 727 mmHg 77%
    02:00 -5°C° 0 mm 3 mps 727 mmHg 76%
    03:00 -5°C° 0 mm 3 mps 727 mmHg 75%
    04:00 -5°C° 0 mm 4 mps 727 mmHg 73%
    05:00 -4°C° 0 mm 4 mps 727 mmHg 71%
    06:00 -4°C° 0 mm 4 mps 727 mmHg 69%
    07:00 -5°C° 0 mm 5 mps 727 mmHg 66%
    08:00 -4°C° 0 mm 5 mps 728 mmHg 63%
    09:00 -4°C° 0 mm 5 mps 728 mmHg 60%
    10:00 -1°C° 0 mm 5 mps 728 mmHg 55%
    11:00 0°C° 0 mm 5 mps 728 mmHg 50%
    12:00 +1°C° 0 mm 5 mps 728 mmHg 45%
    13:00 +2°C° 0 mm 5 mps 728 mmHg 45%
    14:00 +2°C° 0 mm 5 mps 728 mmHg 44%
    15:00 +2°C° 0 mm 5 mps 728 mmHg 44%
    16:00 +1°C° 0 mm 4 mps 728 mmHg 48%
    17:00 -1°C° 0 mm 4 mps 728 mmHg 53%
    18:00 -1°C° 0 mm 3 mps 728 mmHg 57%
    19:00 -1°C° 0 mm 3 mps 728 mmHg 56%
    20:00 -1°C° 0 mm 3 mps 728 mmHg 55%
    21:00 -2°C° 0 mm 3 mps 728 mmHg 54%
    22:00 -2°C° 0 mm 3 mps 728 mmHg 53%
    23:00 -2°C° 0 mm 3 mps 728 mmHg 52%

    Day after tomorrow, 25 October, Thursday

    Time Temperature Precipitation Wind Pressure Humidity
    00:00 -1°C° 0 mm 3 mps 728 mmHg 51%
    01:00 -1°C° 0 mm 3 mps 728 mmHg 51%
    02:00 -1°C° 0 mm 3 mps 728 mmHg 50%
    03:00 -1°C° 0 mm 3 mps 727 mmHg 50%
    04:00 -1°C° 0 mm 2 mps 727 mmHg 49%
    05:00 -1°C° 0 mm 2 mps 727 mmHg 49%
    06:00 -1°C° 0 mm 2 mps 727 mmHg 48%
    07:00 +1°C° 0 mm 2 mps 727 mmHg 46%
    08:00 +2°C° 0 mm 2 mps 728 mmHg 44%
    09:00 +3°C° 0 mm 2 mps 728 mmHg 42%
    10:00 +5°C° 0 mm 2 mps 728 mmHg 40%
    11:00 +7°C° 0 mm 3 mps 727 mmHg 38%
    12:00 +8°C° 0 mm 3 mps 727 mmHg 35%
    13:00 +9°C° 0 mm 3 mps 727 mmHg 38%
    14:00 +9°C° 0 mm 3 mps 727 mmHg 41%
    15:00 +9°C° 0 mm 2 mps 727 mmHg 43%
    16:00 +7°C° 0 mm 2 mps 726 mmHg 48%
    17:00 +5°C° 0 mm 2 mps 726 mmHg 53%
    18:00 +3°C° 0 mm 2 mps 726 mmHg 57%
    19:00 +3°C° 0 mm 2 mps 726 mmHg 57%
    20:00 +3°C° 0 mm 2 mps 726 mmHg 57%
    21:00 +3°C° 0 mm 2 mps 727 mmHg 57%
    22:00 +2°C° 0 mm 2 mps 726 mmHg 57%
    23:00 +2°C° 0 mm 2 mps 726 mmHg 57%

    26 October, Friday

    Time Temperature Precipitation Wind Pressure Humidity
    00:00 +2°C° 0 mm 2 mps 726 mmHg 56%
    01:00 +2°C° 0 mm 2 mps 726 mmHg 56%
    02:00 +3°C° 0 mm 1 mps 726 mmHg 55%
    03:00 +3°C° 0 mm 1 mps 726 mmHg 54%
    04:00 +3°C° 0 mm 1 mps 726 mmHg 54%
    05:00 +3°C° 0 mm 1 mps 727 mmHg 53%
    06:00 +3°C° 0 mm 1 mps 727 mmHg 52%
    07:00 +4°C° 0 mm 1 mps 727 mmHg 51%
    08:00 +5°C° 0 mm 1 mps 727 mmHg 49%
    09:00 +6°C° 0 mm 1 mps 727 mmHg 48%
    10:00 +8°C° 0 mm 1 mps 727 mmHg 44%
    11:00 +10°C° 0 mm 1 mps 727 mmHg 41%
    12:00 +10°C° 0 mm 0 mps 727 mmHg 37%
    13:00 +12°C° 0 mm 1 mps 727 mmHg 39%
    14:00 +12°C° 0 mm 1 mps 726 mmHg 41%
    15:00 +12°C° 0 mm 1 mps 726 mmHg 42%
    16:00 +11°C° 0 mm 1 mps 726 mmHg 47%
    17:00 +9°C° 0 mm 1 mps 726 mmHg 51%
    18:00 +7°C° 0 mm 1 mps 726 mmHg 55%
    19:00 +7°C° 0 mm 1 mps 726 mmHg 55%
    20:00 +6°C° 0 mm 1 mps 726 mmHg 56%
    21:00 +6°C° 0 mm 1 mps 726 mmHg 56%
    22:00 +6°C° 0 mm 1 mps 726 mmHg 55%
    23:00 +5°C° 0 mm 2 mps 726 mmHg 55%

    27 October, Saturday

    Time Temperature Precipitation Wind Pressure Humidity
    00:00 +4°C° 0 mm 2 mps 726 mmHg 54%
    01:00 +4°C° 0 mm 2 mps 725 mmHg 54%
    02:00 +4°C° 0 mm 2 mps 725 mmHg 53%
    03:00 +4°C° 0 mm 2 mps 725 mmHg 53%
    04:00 +4°C° 0 mm 2 mps 725 mmHg 52%
    05:00 +4°C° 0 mm 2 mps 725 mmHg 51%
    06:00 +4°C° 0 mm 2 mps 725 mmHg 50%
    07:00 +5°C° 0 mm 2 mps 725 mmHg 48%
    08:00 +5°C° 0 mm 2 mps 725 mmHg 46%
    09:00 +6°C° 0 mm 2 mps 725 mmHg 45%
    10:00 +9°C° 0 mm 3 mps 725 mmHg 40%
    11:00 +11°C° 0 mm 3 mps 725 mmHg 36%
    12:00 +13°C° 0 mm 4 mps 725 mmHg 32%
    13:00 +13°C° 0 mm 4 mps 725 mmHg 33%
    14:00 +13°C° 0 mm 3 mps 724 mmHg 34%
    15:00 +14°C° 0 mm 3 mps 724 mmHg 36%
    16:00 +12°C° 0 mm 3 mps 724 mmHg 39%
    17:00 +10°C° 0 mm 3 mps 724 mmHg 43%
    18:00 +8°C° 0 mm 3 mps 723 mmHg 46%
    19:00 +8°C° 0 mm 3 mps 723 mmHg 45%
    20:00 +7°C° 0 mm 4 mps 723 mmHg 44%
    21:00 +6°C° 0 mm 4 mps 723 mmHg 43%
    22:00 +6°C° 0 mm 4 mps 722 mmHg 42%
    23:00 +6°C° 0 mm 4 mps 722 mmHg 40%

    28 October, Sunday

    Time Temperature Precipitation Wind Pressure Humidity
    00:00 +6°C° 0 mm 4 mps 722 mmHg 39%
    01:00 +6°C° 0 mm 4 mps 721 mmHg 38%
    02:00 +6°C° 0 mm 4 mps 721 mmHg 36%
    03:00 +6°C° 0 mm 4 mps 721 mmHg 35%
    04:00 +7°C° 0 mm 4 mps 720 mmHg 35%
    05:00 +7°C° 0 mm 5 mps 720 mmHg 34%
    06:00 +7°C° 0 mm 5 mps 720 mmHg 33%
    07:00 +8°C° 0 mm 5 mps 719 mmHg 32%
    08:00 +8°C° 0 mm 5 mps 719 mmHg 31%
    09:00 +9°C° 0 mm 6 mps 719 mmHg 30%
    10:00 +10°C° 0 mm 6 mps 718 mmHg 30%
    11:00 +11°C° 0 mm 6 mps 718 mmHg 29%
    12:00 +12°C° 0 mm 7 mps 718 mmHg 28%
    13:00 +11°C° 0.6 mm 8 mps 717 mmHg 39%
    14:00 +8°C° 0.6 mm 9 mps 717 mmHg 50%
    15:00 +7°C° 0.6 mm 10 mps 717 mmHg 60%
    16:00 +7°C° 0.7 mm 10 mps 717 mmHg 64%
    17:00 +6°C° 0.7 mm 10 mps 718 mmHg 68%
    18:00 +6°C° 0.7 mm 9 mps 718 mmHg 72%
    19:00 +5°C° 0.5 mm 10 mps 720 mmHg 73%
    20:00 +3°C° 0.5 mm 10 mps 721 mmHg 73%
    21:00 +2°C° 0.5 mm 10 mps 722 mmHg 74%
    22:00 +2°C° 0.6 mm 9 mps 724 mmHg 74%
    23:00 +1°C° 0.6 mm 8 mps 725 mmHg 75%

    29 October, Monday

    Time Temperature Precipitation Wind Pressure Humidity
    00:00 +1°C° 0.6 mm 8 mps 726 mmHg 75%
    01:00 +2°C° 0.4 mm 7 mps 726 mmHg 75%
    02:00 +2°C° 0.4 mm 7 mps 727 mmHg 75%
    03:00 +2°C° 0.4 mm 6 mps 727 mmHg 75%
    04:00 +1°C° 0 mm 6 mps 727 mmHg 75%
    05:00 +1°C° 0 mm 6 mps 727 mmHg 75%
    06:00 +1°C° 0 mm 6 mps 727 mmHg 76%
    07:00 +1°C° 0 mm 6 mps 727 mmHg 73%
    08:00 +2°C° 0 mm 7 mps 726 mmHg 70%
    09:00 +2°C° 0 mm 7 mps 726 mmHg 66%
    10:00 +2°C° 0 mm 8 mps 726 mmHg 63%
    11:00 +3°C° 0 mm 9 mps 725 mmHg 60%
    12:00 +5°C° 0 mm 10 mps 725 mmHg 57%
    13:00 +5°C° 0.2 mm 10 mps 724 mmHg 60%
    14:00 +5°C° 0.2 mm 9 mps 724 mmHg 62%
    15:00 +5°C° 0.2 mm 9 mps 724 mmHg 64%
    16:00 +4°C° 0.9 mm 8 mps 724 mmHg 69%
    17:00 +4°C° 0.9 mm 7 mps 723 mmHg 74%
    18:00 +3°C° 0.9 mm 7 mps 723 mmHg 79%
    19:00 +3°C° 1.4 mm 6 mps 723 mmHg 81%
    20:00 +3°C° 1.4 mm 6 mps 723 mmHg 83%
    21:00 +3°C° 1.4 mm 6 mps 722 mmHg 85%
    22:00 +2°C° 0.9 mm 5 mps 722 mmHg 86%
    23:00 +2°C° 0.9 mm 5 mps 721 mmHg 87%
    Show more